| time (UTC) | temp C | wind direction | speed KPH | gust KPH | rain 1hr cm | rain 24hr cm | rain mn cm | humidity % | barometer mb |
| 20260502210903 | 12 | 0 | 0.0 | 0.0 | 0.15 | 0.20 | 0.20 | 91 | 1012.0 |
| 20260502210003 | 12 | 0 | 0.0 | 0.0 | 0.15 | 0.18 | 0.18 | 90 | 1012.1 |
| 20260502205618 | 12 | 0 | 0.0 | 0.0 | 0.13 | 0.15 | 0.15 | 89 | 1012.1 |
| 20260502204717 | 12 | 0 | 0.0 | 0.0 | 0.13 | 0.15 | 0.15 | 88 | 1012.2 |
| 20260502203603 | 12 | 0 | 0.0 | 0.0 | 0.13 | 0.13 | 0.13 | 87 | 1012.3 |
| 20260502202703 | 12 | 153 | 1.6 | 3.2 | 0.10 | 0.10 | 0.10 | 85 | 1012.3 |
| 20260502201803 | 13 | 151 | 1.6 | 3.2 | 0.08 | 0.08 | 0.08 | 85 | 1012.4 |
| 20260502200903 | 13 | 0 | 0.0 | 1.6 | 0.05 | 0.05 | 0.05 | 83 | 1012.3 |
| 20260502200003 | 13 | 1 | 0.0 | 3.2 | 0.03 | 0.03 | 0.03 | 82 | 1012.3 |
| 20260502195403 | 13 | 1 | 0.0 | 1.6 | 0.03 | 0.03 | 0.03 | 81 | 1012.3 |
| 20260502194503 | 13 | 1 | 1.6 | 3.2 | 0.03 | 0.03 | 0.03 | 80 | 1012.2 |
| 20260502193603 | 13 | 350 | 1.6 | 4.8 | 0.00 | 0.00 | 0.00 | 78 | 1012.2 |
| 20260502192917 | 13 | 360 | 1.6 | 6.4 | 0.00 | 0.00 | 0.00 | 77 | 1012.2 |
| 20260502191803 | 14 | 346 | 3.2 | 9.7 | 0.00 | 0.00 | 0.00 | 75 | 1012.2 |
| 20260502190903 | 14 | 330 | 1.6 | 6.4 | 0.00 | 0.00 | 0.00 | 73 | 1012.1 |
| 20260502190003 | 15 | 0 | 0.0 | 1.6 | 0.00 | 0.00 | 0.00 | 67 | 1012.1 |
| 20260502185403 | 15 | 0 | 0.0 | 0.0 | 0.00 | 0.00 | 0.00 | 66 | 1012.1 |
| 20260502184503 | 15 | 0 | 0.0 | 0.0 | 0.00 | 0.00 | 0.00 | 64 | 1012.1 |
| 20260502183818 | 15 | 149 | 0.0 | 1.6 | 0.00 | 0.00 | 0.00 | 62 | 1012.2 |
| 20260502182703 | 15 | 159 | 0.0 | 3.2 | 0.00 | 0.00 | 0.00 | 62 | 1012.3 |
| 20260502181803 | 15 | 159 | 0.0 | 6.4 | 0.00 | 0.00 | 0.00 | 62 | 1012.3 |
| 20260502180903 | 16 | 171 | 1.6 | 4.8 | 0.00 | 0.00 | 0.00 | 60 | 1012.4 |
| 20260502163603 | 16 | 117 | 1.6 | 4.8 | 0.00 | 0.08 | 0.00 | 56 | 1012.7 |
| 20260502162703 | 17 | 148 | 3.2 | 6.4 | 0.00 | 0.08 | 0.00 | 55 | 1012.8 |
| 20260502161803 | 17 | 67 | 1.6 | 4.8 | 0.00 | 0.08 | 0.00 | 56 | 1013.0 |
| 20260502161117 | 17 | 139 | 3.2 | 4.8 | 0.00 | 0.08 | 0.00 | 56 | 1013.0 |
| 20260502160218 | 17 | 143 | 3.2 | 8.0 | 0.00 | 0.08 | 0.00 | 54 | 1013.1 |
| 20260502151803 | 18 | 94 | 1.6 | 4.8 | 0.00 | 0.08 | 0.00 | 52 | 1013.5 |
| 20260502150903 | 18 | 122 | 1.6 | 3.2 | 0.00 | 0.08 | 0.00 | 51 | 1013.5 |
| 20260502123603 | 17 | 148 | 3.2 | 8.0 | 0.00 | 0.08 | 0.00 | 61 | 1015.4 |
| 20260502122917 | 17 | 104 | 3.2 | 8.0 | 0.00 | 0.08 | 0.00 | 59 | 1015.5 |
| 20260502121803 | 17 | 153 | 1.6 | 8.0 | 0.00 | 0.08 | 0.00 | 61 | 1015.7 |
| 20260502120903 | 17 | 139 | 3.2 | 8.0 | 0.00 | 0.08 | 0.00 | 57 | 1015.8 |
| 20260502120219 | 16 | 35 | 3.2 | 9.7 | 0.00 | 0.08 | 0.00 | 60 | 1015.9 |
| 20260502115403 | 17 | 179 | 4.8 | 6.4 | 0.00 | 0.08 | 0.00 | 61 | 1016.0 |
| 20260502114503 | 17 | 150 | 1.6 | 8.0 | 0.00 | 0.08 | 0.00 | 62 | 1016.1 |
| 20260502113817 | 17 | 125 | 1.6 | 8.0 | 0.00 | 0.08 | 0.00 | 64 | 1016.1 |
| 20260502112916 | 17 | 172 | 3.2 | 3.2 | 0.00 | 0.08 | 0.00 | 60 | 1016.2 |
| 20260502111803 | 17 | 155 | 1.6 | 4.8 | 0.00 | 0.08 | 0.00 | 62 | 1016.2 |
| 20260502110903 | 16 | 161 | 1.6 | 6.4 | 0.00 | 0.08 | 0.00 | 64 | 1016.3 |
| 20260502110003 | 16 | 121 | 0.0 | 6.4 | 0.00 | 0.08 | 0.00 | 65 | 1016.3 |
| 20260502105403 | 15 | 160 | 1.6 | 4.8 | 0.00 | 0.08 | 0.00 | 66 | 1016.3 |
| 20260502104503 | 15 | 155 | 3.2 | 6.4 | 0.00 | 0.08 | 0.00 | 66 | 1016.4 |
| 20260502103603 | 15 | 90 | 1.6 | 6.4 | 0.00 | 0.08 | 0.00 | 67 | 1016.4 |
| 20260502102703 | 15 | 63 | 1.6 | 6.4 | 0.00 | 0.08 | 0.00 | 67 | 1016.5 |
| 20260502101803 | 16 | 160 | 1.6 | 6.4 | 0.00 | 0.08 | 0.00 | 67 | 1016.7 |
| 20260502101117 | 16 | 153 | 1.6 | 6.4 | 0.00 | 0.08 | 0.00 | 68 | 1016.8 |
| 20260502090903 | 14 | 109 | 1.6 | 4.8 | 0.00 | 0.08 | 0.00 | 76 | 1016.9 |
| 20260502071117 | 11 | 100 | 1.6 | 3.2 | 0.00 | 0.08 | 0.00 | 86 | 1017.2 |
| 20260502070003 | 11 | 341 | 0.0 | 1.6 | 0.00 | 0.08 | 0.00 | 88 | 1017.1 |
| 20260502065403 | 11 | 341 | 0.0 | 3.2 | 0.00 | 0.08 | 0.00 | 89 | 1017.1 |
| 20260502064718 | 10 | 341 | 0.0 | 1.6 | 0.00 | 0.08 | 0.00 | 92 | 1017.1 |
| 20260502063604 | 10 | 341 | 0.0 | 1.6 | 0.00 | 0.08 | 0.00 | 92 | 1017.1 |
| 20260502062703 | 10 | 0 | 0.0 | 3.2 | 0.00 | 0.08 | 0.00 | 93 | 1017.1 |
| 20260502061803 | 9 | 0 | 0.0 | 1.6 | 0.00 | 0.08 | 0.00 | 94 | 1017.1 |
| 20260502060903 | 10 | 0 | 0.0 | 0.0 | 0.00 | 0.08 | 0.00 | 95 | 1017.1 |
| 20260502060003 | 8 | 0 | 0.0 | 1.6 | 0.00 | 0.08 | 0.00 | 97 | 1017.0 |
| 20260502055618 | 7 | 0 | 0.0 | 0.0 | 0.00 | 0.08 | 0.00 | 97 | 1017.0 |
| 20260502054503 | 7 | 0 | 0.0 | 0.0 | 0.00 | 0.08 | 0.00 | 97 | 1017.0 |
| 20260502053817 | 7 | 0 | 0.0 | 0.0 | 0.00 | 0.08 | 0.00 | 97 | 1017.0 |
| 20260502052703 | 7 | 0 | 0.0 | 0.0 | 0.00 | 0.08 | 0.00 | 97 | 1017.0 |
| 20260502051803 | 7 | 0 | 0.0 | 0.0 | 0.00 | 0.08 | 0.00 | 97 | 1017.0 |
| 20260502050904 | 6 | 0 | 0.0 | 0.0 | 0.00 | 0.08 | 0.00 | 97 | 1017.0 |
| 20260502050218 | 6 | 0 | 0.0 | 0.0 | 0.00 | 0.08 | 0.00 | 97 | 1017.0 |
| 20260502045403 | 7 | 0 | 0.0 | 0.0 | 0.00 | 0.08 | 0.00 | 97 | 1017.0 |
| 20260502044503 | 7 | 0 | 0.0 | 0.0 | 0.00 | 0.08 | 0.00 | 97 | 1017.0 |
| 20260502043816 | 7 | 0 | 0.0 | 0.0 | 0.00 | 0.08 | 0.00 | 97 | 1017.0 |
| 20260502042703 | 7 | 0 | 0.0 | 0.0 | 0.00 | 0.08 | 0.00 | 97 | 1017.0 |
| 20260502041803 | 6 | 0 | 0.0 | 0.0 | 0.00 | 0.08 | 0.00 | 97 | 1017.0 |
| 20260502040903 | 6 | 0 | 0.0 | 0.0 | 0.00 | 0.08 | 0.00 | 97 | 1017.1 |
| 20260502040218 | 6 | 0 | 0.0 | 0.0 | 0.00 | 0.08 | 0.00 | 97 | 1017.2 |
| 20260502035403 | 7 | 0 | 0.0 | 0.0 | 0.00 | 0.08 | 0.00 | 97 | 1017.2 |
| 20260502034503 | 7 | 0 | 0.0 | 0.0 | 0.00 | 0.08 | 0.00 | 97 | 1017.2 |
| 20260502033603 | 7 | 0 | 0.0 | 0.0 | 0.00 | 0.08 | 0.00 | 97 | 1017.3 |
| 20260502032703 | 7 | 0 | 0.0 | 0.0 | 0.00 | 0.08 | 0.00 | 97 | 1017.2 |
| 20260502031803 | 7 | 0 | 0.0 | 0.0 | 0.00 | 0.08 | 0.00 | 97 | 1017.2 |
| 20260502030903 | 7 | 0 | 0.0 | 0.0 | 0.00 | 0.08 | 0.00 | 97 | 1017.3 |
| 20260502030003 | 7 | 0 | 0.0 | 0.0 | 0.00 | 0.08 | 0.00 | 97 | 1017.3 |
| 20260502025403 | 7 | 0 | 0.0 | 0.0 | 0.00 | 0.08 | 0.00 | 97 | 1017.3 |
| 20260502024503 | 7 | 0 | 0.0 | 0.0 | 0.00 | 0.08 | 0.00 | 97 | 1017.2 |
| 20260502023603 | 7 | 0 | 0.0 | 0.0 | 0.00 | 0.08 | 0.00 | 97 | 1017.3 |
| 20260502022703 | 7 | 0 | 0.0 | 0.0 | 0.00 | 0.08 | 0.00 | 97 | 1017.4 |
| 20260502021803 | 8 | 0 | 0.0 | 0.0 | 0.00 | 0.08 | 0.00 | 97 | 1017.5 |
| 20260502020903 | 8 | 0 | 0.0 | 0.0 | 0.00 | 0.08 | 0.00 | 97 | 1017.6 |
| 20260502020003 | 8 | 0 | 0.0 | 0.0 | 0.00 | 0.08 | 0.00 | 97 | 1017.7 |
| 20260502015403 | 8 | 0 | 0.0 | 0.0 | 0.00 | 0.08 | 0.00 | 97 | 1017.8 |
| 20260502014503 | 8 | 0 | 0.0 | 0.0 | 0.00 | 0.08 | 0.00 | 97 | 1017.9 |
| 20260502013603 | 8 | 0 | 0.0 | 0.0 | 0.00 | 0.08 | 0.00 | 96 | 1017.9 |
| 20260502012703 | 7 | 0 | 0.0 | 0.0 | 0.00 | 0.08 | 0.00 | 96 | 1018.0 |
| 20260502011803 | 7 | 0 | 0.0 | 0.0 | 0.00 | 0.08 | 0.00 | 96 | 1018.1 |
| 20260502011117 | 8 | 0 | 0.0 | 0.0 | 0.00 | 0.08 | 0.00 | 96 | 1018.1 |
| 20260502010003 | 8 | 0 | 0.0 | 0.0 | 0.00 | 0.08 | 0.00 | 96 | 1018.2 |
| 20260502005403 | 8 | 0 | 0.0 | 0.0 | 0.00 | 0.08 | 0.00 | 96 | 1018.2 |
| 20260502004503 | 8 | 0 | 0.0 | 0.0 | 0.00 | 0.08 | 0.00 | 96 | 1018.3 |
| 20260502003603 | 8 | 0 | 0.0 | 0.0 | 0.00 | 0.08 | 0.00 | 96 | 1018.3 |
| 20260502002703 | 8 | 0 | 0.0 | 0.0 | 0.00 | 0.08 | 0.00 | 96 | 1018.3 |
| 20260502001803 | 8 | 0 | 0.0 | 0.0 | 0.00 | 0.08 | 0.00 | 96 | 1018.4 |
| 20260502001117 | 8 | 0 | 0.0 | 0.0 | 0.00 | 0.08 | 0.00 | 96 | 1018.4 |
| 20260502000218 | 8 | 0 | 0.0 | 0.0 | 0.00 | 0.08 | 0.00 | 96 | 1018.4 |
| 20260501235618 | 8 | 0 | 0.0 | 0.0 | 0.00 | 0.08 | 0.00 | 96 | 1018.4 |
| 20260501234503 | 8 | 0 | 0.0 | 0.0 | 0.00 | 0.08 | 0.00 | 96 | 1018.4 |
| 20260501233603 | 9 | 0 | 0.0 | 0.0 | 0.00 | 0.08 | 0.00 | 96 | 1018.5 |
| 20260501232703 | 9 | 0 | 0.0 | 0.0 | 0.00 | 0.08 | 0.00 | 96 | 1018.5 |
| 20260501232017 | 9 | 0 | 0.0 | 0.0 | 0.00 | 0.08 | 0.00 | 96 | 1018.5 |
| 20260501230903 | 9 | 0 | 0.0 | 0.0 | 0.00 | 0.08 | 0.00 | 95 | 1018.5 |
| 20260501230003 | 9 | 0 | 0.0 | 0.0 | 0.00 | 0.08 | 0.00 | 95 | 1018.6 |
| 20260501225403 | 9 | 0 | 0.0 | 0.0 | 0.00 | 0.08 | 0.08 | 95 | 1018.6 |
| 20260501224503 | 9 | 0 | 0.0 | 0.0 | 0.00 | 0.08 | 0.08 | 95 | 1018.5 |
| 20260501223603 | 10 | 0 | 0.0 | 0.0 | 0.00 | 0.08 | 0.08 | 95 | 1018.5 |
| 20260501222917 | 10 | 0 | 0.0 | 0.0 | 0.00 | 0.08 | 0.08 | 95 | 1018.6 |
| 20260501221803 | 10 | 0 | 0.0 | 0.0 | 0.00 | 0.08 | 0.08 | 95 | 1018.8 |
| 20260501220903 | 10 | 0 | 0.0 | 0.0 | 0.00 | 0.08 | 0.08 | 95 | 1018.8 |
| 20260501220217 | 10 | 0 | 0.0 | 0.0 | 0.00 | 0.08 | 0.08 | 95 | 1018.8 |
| 20260501215617 | 10 | 0 | 0.0 | 0.0 | 0.00 | 0.08 | 0.08 | 94 | 1018.9 |
| 20260501214503 | 10 | 0 | 0.0 | 0.0 | 0.00 | 0.08 | 0.08 | 94 | 1018.9 |
| 20260501213603 | 10 | 0 | 0.0 | 0.0 | 0.00 | 0.08 | 0.08 | 94 | 1018.9 |
| 20260501212703 | 10 | 0 | 0.0 | 0.0 | 0.00 | 0.08 | 0.08 | 94 | 1018.9 |
| 20260501211803 | 11 | 0 | 0.0 | 0.0 | 0.00 | 0.08 | 0.08 | 94 | 1018.8 |